Jaipur / Sanganer, India

6:24 AM IST on February 24, 2017 (GMT +0530)
Jaipur

Weather History for VIJP - September, 2012

Change the Weather History Date:

Tuesday, September 4, 2012

  Actual Average Record
Temperature  
Mean Temperature 82 °F -  
Max Temperature 87 °F - - ()
Min Temperature 77 °F - - ()
Cooling Degree Days 17    
Growing Degree Days 32 (Base 50)    
Moisture  
Dew Point 78 °F    
Average Humidity 89    
Maximum Humidity 100    
Minimum Humidity 68    
Precipitation  
Precipitation 0.01 in - - ()
Sea Level Pressure  
Sea Level Pressure 29.65 in    
Wind  
Wind Speed 5 mph ()    
Max Wind Speed 13 mph    
Max Gust Speed -    
Visibility 1.5 miles    
Events Rain , Thunderstorm    
T = Trace of Precipitation, MM = Missing Value Source: Averaged Metar Reports

Daily Weather History Graph

Daily Weather History Graph

Search for Another Location

Airport or City:

Trip Planner

Search our weather history database for the weather conditions in past years. The results will help you decide how hot, cold, wet, or windy it might be!

Date:

Astronomy

Sep. 04, 2012 Rise Set
Actual Time 6:07 AM IST 6:43 PM IST
Civil Twilight 5:44 AM IST 7:06 PM IST
Nautical Twilight 5:16 AM IST 7:34 PM IST
Astronomical Twilight 4:48 AM IST 8:02 PM IST
Moon 8:49 PM IST (9/4) 9:20 AM IST (9/4)
Length of Visible Light 13h 22m
Length of Day
12h 35m
Waning Gibbous, 86% of the Moon is Illuminated
Sep 4
Waning Gibbous
Sep 8
Last Quarter
Sep 16
New
Sep 23
First Quarter
Sep 30
Full

Hourly Weather History & Observations

Time (IST) Temp. Heat Index Dew Point Humidity Pressure Visibility Wind Dir Wind Speed Gust Speed Precip Events Conditions
12:00 AM 78.8 °F - 77.0 °F 94% 29.65 in 1.2 mi Calm Calm - N/A   Scattered Clouds
1:00 AM 78.8 °F - 78.8 °F 100% 29.65 in 1.2 mi Calm Calm - N/A   Scattered Clouds
2:00 AM 78.8 °F - 78.8 °F 100% 29.62 in 1.2 mi Calm Calm - N/A   Scattered Clouds
2:30 AM 78 °F - 76 °F 93% 29.50 in 2 mi SSW 2.3 mph - -   Scattered Clouds
3:00 AM 78.8 °F - 78.8 °F 100% 29.62 in 1.2 mi ENE 4.6 mph - N/A   Scattered Clouds
4:00 AM 78.8 °F - 78.8 °F 100% 29.62 in 1.2 mi ENE 5.8 mph - N/A   Scattered Clouds
5:00 AM 78.8 °F - 78.8 °F 100% 29.62 in 1.2 mi Variable 2.3 mph - N/A   Scattered Clouds
5:30 AM 78.8 °F - 77.0 °F 94% 29.62 in 1.2 mi ENE 5.8 mph - N/A   Scattered Clouds
6:00 AM 78.8 °F - 77.0 °F 94% 29.65 in 1.2 mi ENE 5.8 mph - N/A   Scattered Clouds
7:00 AM 78.8 °F - 77.0 °F 94% 29.65 in 1.2 mi ENE 3.5 mph - N/A   Scattered Clouds
7:30 AM 80.6 °F 87.1 °F 77.0 °F 89% 29.68 in 1.2 mi East 5.8 mph - N/A   Mostly Cloudy
8:00 AM 80.6 °F 87.1 °F 77.0 °F 89% 29.68 in 1.2 mi East 8.1 mph - N/A   Mostly Cloudy
8:30 AM 81 °F - 79 °F 92% 29.62 in 1 mi ENE 6.9 mph - -   Mist
9:00 AM 82.4 °F 90.9 °F 77.0 °F 84% 29.68 in 1.6 mi East 6.9 mph - N/A   Mostly Cloudy
9:30 AM 82.4 °F 92.4 °F 78.8 °F 89% 29.71 in 1.6 mi ESE 9.2 mph - N/A   Mostly Cloudy
10:00 AM 82.4 °F 92.4 °F 78.8 °F 89% 29.71 in 1.6 mi East 8.1 mph - N/A   Mostly Cloudy
10:30 AM 82.4 °F 92.4 °F 78.8 °F 89% 29.71 in 1.6 mi East 10.4 mph - N/A   Mostly Cloudy
11:00 AM 82.4 °F 92.4 °F 78.8 °F 89% 29.71 in 1.6 mi ENE 9.2 mph - N/A   Mostly Cloudy
11:30 AM 82 °F - 76 °F 76% 29.62 in 1 mi ENE 9.2 mph - - Rain , Thunderstorm Thunderstorms and Rain
11:30 AM 82.4 °F 90.9 °F 77.0 °F 84% 29.68 in 1.6 mi East 9.2 mph - N/A Rain , Thunderstorm Light Thunderstorms and Rain
12:00 PM 84.2 °F 96.1 °F 78.8 °F 84% 29.68 in 1.6 mi East 10.4 mph - N/A   Mostly Cloudy
1:00 PM 87.8 °F 102.5 °F 78.8 °F 75% 29.65 in 2.2 mi East 11.5 mph - N/A   Mostly Cloudy
2:00 PM 86.0 °F 99.3 °F 78.8 °F 79% 29.62 in 2.2 mi East 12.7 mph - N/A   Haze
2:30 PM 85 °F - 76 °F 68% 29.55 in 1 mi ENE 9.2 mph - -   Haze
3:00 PM 84.2 °F 96.1 °F 78.8 °F 84% 29.62 in 2.2 mi NE 9.2 mph - N/A   Haze
4:00 PM 84.2 °F 96.1 °F 78.8 °F 84% 29.62 in 2.2 mi Variable 4.6 mph - N/A   Haze
5:00 PM 78.8 °F - 75.2 °F 89% 29.62 in 2.2 mi Variable 3.5 mph - N/A Thunderstorm Thunderstorm
6:00 PM 80.6 °F 87.1 °F 77.0 °F 89% 29.62 in 2.2 mi Calm Calm - N/A Thunderstorm Thunderstorm
8:00 PM 78.8 °F - 77.0 °F 94% 29.65 in 1.9 mi East 6.9 mph - N/A Thunderstorm Thunderstorm
8:30 PM 80 °F - 76 °F 86% 29.60 in 1 mi NE 6.9 mph - - Thunderstorm Thunderstorm
9:00 PM 78.8 °F - 77.0 °F 94% 29.68 in 1.9 mi ENE 5.8 mph - N/A Thunderstorm Thunderstorm
10:00 PM 80.6 °F 87.1 °F 77.0 °F 89% 29.71 in 1.6 mi NE 8.1 mph - N/A   Overcast
11:00 PM 78.8 °F - 77.0 °F 94% 29.71 in 1.6 mi ENE 8.1 mph - N/A   Overcast
11:30 PM 80 °F - 76 °F 84% 29.63 in 1 mi NE 4.6 mph - -   Mist